contact:dominique.lefevre@mio.osupytheas.fr, maurice.libes@osupytheas.fr, didier.mallarino@osupytheas.fr
Project:EMSO http://www.emso-fr.org/EMSO-France
Depth: 2436.0 m
Title:EMSO Ligure Ouest : Data MII capteur MICROCAT
DateTime_Computer,Latitude,Longitude,Temperature,Conductivity,Pressure,DateTime_Instrument
DateTime_Computer,Latitude,Longitude,degC,S m-1,dbar,DateTime_Instrument
2020-12-11T00:02:50Z,42.805,6.029,13.2981,4.59997,2470.133,2020-12-11T02:03:48Z
2020-12-11T00:05:53Z,42.805,6.029,13.2983,4.59996,2470.11,2020-12-11T02:06:51Z
2020-12-11T00:08:56Z,42.805,6.029,13.2982,4.60003,2470.133,2020-12-11T02:09:55Z
2020-12-11T00:11:59Z,42.805,6.029,13.2984,4.59994,2470.11,2020-12-11T02:12:58Z
2020-12-11T00:15:02Z,42.805,6.029,13.2983,4.59991,2470.11,2020-12-11T02:16:01Z
2020-12-11T00:18:05Z,42.805,6.029,13.2982,4.59990,2470.1,2020-12-11T02:19:04Z
2020-12-11T00:21:08Z,42.805,6.029,13.2980,4.59992,2470.124,2020-12-11T02:22:07Z
2020-12-11T00:24:12Z,42.805,6.029,13.2980,4.59991,2470.133,2020-12-11T02:25:10Z
2020-12-11T00:27:15Z,42.805,6.029,13.2983,4.59996,2470.133,2020-12-11T02:28:13Z
2020-12-11T00:30:18Z,42.805,6.029,13.2983,4.60007,2470.133,2020-12-11T02:31:16Z
2020-12-11T00:33:21Z,42.805,6.029,13.2985,4.59994,2470.156,2020-12-11T02:34:20Z
2020-12-11T00:36:24Z,42.805,6.029,13.2983,4.59999,2470.133,2020-12-11T02:37:23Z
2020-12-11T00:39:27Z,42.805,6.029,13.2982,4.60002,2470.194,2020-12-11T02:40:26Z
2020-12-11T00:42:30Z,42.805,6.029,13.2987,4.59998,2470.156,2020-12-11T02:43:29Z
2020-12-11T00:45:33Z,42.805,6.029,13.2985,4.60002,2470.171,2020-12-11T02:46:32Z
2020-12-11T00:48:37Z,42.805,6.029,13.2979,4.59999,2470.11,2020-12-11T02:49:35Z
2020-12-11T00:51:40Z,42.805,6.029,13.2985,4.59996,2470.133,2020-12-11T02:52:38Z
2020-12-11T00:54:43Z,42.805,6.029,13.2983,4.59991,2470.133,2020-12-11T02:55:41Z
2020-12-11T00:57:46Z,42.805,6.029,13.2978,4.59994,2470.133,2020-12-11T02:58:45Z
2020-12-11T01:00:49Z,42.805,6.029,13.2983,4.60002,2470.171,2020-12-11T03:01:48Z
2020-12-11T01:03:52Z,42.805,6.029,13.2981,4.59993,2470.156,2020-12-11T03:04:51Z
2020-12-11T01:06:55Z,42.805,6.029,13.2983,4.60000,2470.171,2020-12-11T03:07:54Z
2020-12-11T01:09:58Z,42.805,6.029,13.2985,4.60007,2470.133,2020-12-11T03:10:57Z
2020-12-11T01:13:02Z,42.805,6.029,13.2984,4.60001,2470.156,2020-12-11T03:14:00Z
2020-12-11T01:16:05Z,42.805,6.029,13.2983,4.59996,2470.171,2020-12-11T03:17:03Z
2020-12-11T01:19:08Z,42.805,6.029,13.2982,4.59996,2470.156,2020-12-11T03:20:06Z
2020-12-11T01:22:11Z,42.805,6.029,13.2989,4.60009,2470.18,2020-12-11T03:23:09Z
2020-12-11T01:25:14Z,42.805,6.029,13.2983,4.60004,2470.156,2020-12-11T03:26:13Z
2020-12-11T01:28:17Z,42.805,6.029,13.2987,4.60000,2470.171,2020-12-11T03:29:16Z
2020-12-11T01:31:20Z,42.805,6.029,13.2983,4.60003,2470.156,2020-12-11T03:32:19Z
2020-12-11T01:34:23Z,42.805,6.029,13.2980,4.59991,2470.171,2020-12-11T03:35:22Z
2020-12-11T01:37:26Z,42.805,6.029,13.2983,4.59998,2470.194,2020-12-11T03:38:25Z
2020-12-11T01:40:30Z,42.805,6.029,13.2984,4.59999,2470.203,2020-12-11T03:41:28Z
2020-12-11T01:43:33Z,42.805,6.029,13.2982,4.60001,2470.18,2020-12-11T03:44:31Z
2020-12-11T01:46:36Z,42.805,6.029,13.2985,4.59998,2470.18,2020-12-11T03:47:34Z
2020-12-11T01:49:39Z,42.805,6.029,13.2985,4.59999,2470.18,2020-12-11T03:50:38Z
2020-12-11T01:52:42Z,42.805,6.029,13.2990,4.59996,2470.18,2020-12-11T03:53:41Z
2020-12-11T01:55:45Z,42.805,6.029,13.2992,4.60005,2470.18,2020-12-11T03:56:44Z
2020-12-11T01:58:48Z,42.805,6.029,13.2983,4.60003,2470.194,2020-12-11T03:59:47Z
2020-12-11T02:01:51Z,42.805,6.029,13.2990,4.60006,2470.203,2020-12-11T04:02:50Z
2020-12-11T02:04:55Z,42.805,6.029,13.2980,4.59994,2470.156,2020-12-11T04:05:53Z
2020-12-11T02:07:58Z,42.805,6.029,13.2983,4.59992,2470.217,2020-12-11T04:08:56Z
2020-12-11T02:11:01Z,42.805,6.029,13.2982,4.59996,2470.18,2020-12-11T04:11:59Z
2020-12-11T02:14:04Z,42.805,6.029,13.2989,4.60005,2470.217,2020-12-11T04:15:03Z
2020-12-11T02:17:07Z,42.805,6.029,13.2990,4.60009,2470.18,2020-12-11T04:18:06Z
2020-12-11T02:20:10Z,42.805,6.029,13.2988,4.60006,2470.156,2020-12-11T04:21:09Z
2020-12-11T02:23:13Z,42.805,6.029,13.2982,4.59999,2470.24,2020-12-11T04:24:12Z
2020-12-11T02:26:16Z,42.805,6.029,13.2979,4.59995,2470.189,2020-12-11T04:27:15Z
2020-12-11T02:29:20Z,42.805,6.029,13.2982,4.60014,2470.24,2020-12-11T04:30:18Z
2020-12-11T02:32:23Z,42.805,6.029,13.2986,4.60004,2470.203,2020-12-11T04:33:21Z
2020-12-11T02:35:26Z,42.805,6.029,13.2987,4.60004,2470.203,2020-12-11T04:36:24Z
2020-12-11T02:38:29Z,42.805,6.029,13.2990,4.60005,2470.227,2020-12-11T04:39:28Z
2020-12-11T02:41:32Z,42.805,6.029,13.2984,4.60004,2470.203,2020-12-11T04:42:31Z
2020-12-11T02:44:35Z,42.805,6.029,13.2983,4.60010,2470.203,2020-12-11T04:45:34Z
2020-12-11T02:47:38Z,42.805,6.029,13.2982,4.60002,2470.227,2020-12-11T04:48:37Z
2020-12-11T02:50:41Z,42.805,6.029,13.2986,4.60003,2470.217,2020-12-11T04:51:40Z
2020-12-11T02:53:45Z,42.805,6.029,13.2979,4.59994,2470.24,2020-12-11T04:54:43Z
2020-12-11T02:56:48Z,42.805,6.029,13.2988,4.60001,2470.24,2020-12-11T04:57:46Z
2020-12-11T02:59:51Z,42.805,6.029,13.2982,4.59991,2470.203,2020-12-11T05:00:49Z
2020-12-11T03:02:54Z,42.805,6.029,13.2983,4.59990,2470.227,2020-12-11T05:03:53Z
2020-12-11T03:05:57Z,42.805,6.029,13.2983,4.59994,2470.217,2020-12-11T05:06:56Z
2020-12-11T03:09:00Z,42.805,6.029,13.2985,4.59993,2470.264,2020-12-11T05:09:59Z
2020-12-11T03:12:03Z,42.805,6.029,13.2985,4.59992,2470.227,2020-12-11T05:13:02Z
2020-12-11T03:15:06Z,42.805,6.029,13.2985,4.60004,2470.203,2020-12-11T05:16:05Z
2020-12-11T03:18:10Z,42.805,6.029,13.2986,4.59996,2470.227,2020-12-11T05:19:08Z
2020-12-11T03:21:13Z,42.805,6.029,13.2993,4.60000,2470.227,2020-12-11T05:22:11Z
2020-12-11T03:24:16Z,42.805,6.029,13.2986,4.59993,2470.227,2020-12-11T05:25:14Z
2020-12-11T03:27:19Z,42.805,6.029,13.2987,4.59998,2470.25,2020-12-11T05:28:17Z
2020-12-11T03:30:22Z,42.805,6.029,13.2983,4.59993,2470.25,2020-12-11T05:31:21Z
2020-12-11T03:33:25Z,42.805,6.029,13.2979,4.59998,2470.25,2020-12-11T05:34:24Z
2020-12-11T03:36:28Z,42.805,6.029,13.2980,4.59999,2470.264,2020-12-11T05:37:27Z
2020-12-11T03:39:31Z,42.805,6.029,13.2984,4.59991,2470.25,2020-12-11T05:40:30Z
2020-12-11T03:42:35Z,42.805,6.029,13.2984,4.59994,2470.25,2020-12-11T05:43:33Z
2020-12-11T03:45:38Z,42.805,6.029,13.2990,4.60003,2470.25,2020-12-11T05:46:36Z
2020-12-11T03:48:41Z,42.805,6.029,13.2982,4.59997,2470.25,2020-12-11T05:49:39Z
2020-12-11T03:51:44Z,42.805,6.029,13.2987,4.59996,2470.273,2020-12-11T05:52:43Z
2020-12-11T03:54:47Z,42.805,6.029,13.2981,4.59991,2470.254,2020-12-11T05:55:46Z
2020-12-11T03:57:50Z,42.805,6.029,13.2988,4.59991,2470.25,2020-12-11T05:58:49Z
2020-12-11T04:00:53Z,42.805,6.029,13.2983,4.59992,2470.273,2020-12-11T06:01:52Z
2020-12-11T04:03:56Z,42.805,6.029,13.2988,4.59996,2470.227,2020-12-11T06:04:55Z
2020-12-11T04:07:00Z,42.805,6.029,13.2986,4.59993,2470.25,2020-12-11T06:07:58Z
2020-12-11T04:10:03Z,42.805,6.029,13.2985,4.60001,2470.264,2020-12-11T06:11:01Z
2020-12-11T04:13:06Z,42.805,6.029,13.2985,4.59994,2470.24,2020-12-11T06:14:04Z
2020-12-11T04:16:09Z,42.805,6.029,13.2978,4.59989,2470.25,2020-12-11T06:17:07Z
2020-12-11T04:19:12Z,42.805,6.029,13.2984,4.59996,2470.273,2020-12-11T06:20:11Z
2020-12-11T04:22:15Z,42.805,6.029,13.2984,4.59996,2470.25,2020-12-11T06:23:14Z
2020-12-11T04:25:18Z,42.805,6.029,13.2986,4.59995,2470.24,2020-12-11T06:26:17Z
2020-12-11T04:28:21Z,42.805,6.029,13.2985,4.59992,2470.25,2020-12-11T06:29:20Z
2020-12-11T04:31:24Z,42.805,6.029,13.2984,4.59990,2470.25,2020-12-11T06:32:23Z
2020-12-11T04:34:28Z,42.805,6.029,13.2979,4.59994,2470.227,2020-12-11T06:35:26Z
2020-12-11T04:37:31Z,42.805,6.029,13.2983,4.59991,2470.25,2020-12-11T06:38:29Z
2020-12-11T04:40:34Z,42.805,6.029,13.2983,4.59989,2470.25,2020-12-11T06:41:32Z
2020-12-11T04:43:37Z,42.805,6.029,13.2983,4.59994,2470.25,2020-12-11T06:44:36Z
2020-12-11T04:46:40Z,42.805,6.029,13.2982,4.59991,2470.25,2020-12-11T06:47:39Z
2020-12-11T04:49:43Z,42.805,6.029,13.2987,4.59993,2470.25,2020-12-11T06:50:42Z
2020-12-11T04:52:46Z,42.805,6.029,13.2986,4.59991,2470.273,2020-12-11T06:53:45Z
2020-12-11T04:55:49Z,42.805,6.029,13.2982,4.59994,2470.273,2020-12-11T06:56:48Z
2020-12-11T04:58:53Z,42.805,6.029,13.2983,4.59992,2470.227,2020-12-11T06:59:51Z
2020-12-11T05:01:56Z,42.805,6.029,13.2986,4.59997,2470.264,2020-12-11T07:02:54Z
2020-12-11T05:04:59Z,42.805,6.029,13.2983,4.59989,2470.25,2020-12-11T07:05:57Z
2020-12-11T05:08:02Z,42.805,6.029,13.2982,4.59995,2470.273,2020-12-11T07:09:01Z
2020-12-11T05:11:05Z,42.805,6.029,13.2981,4.59993,2470.264,2020-12-11T07:12:04Z
2020-12-11T05:14:08Z,42.805,6.029,13.2986,4.59999,2470.24,2020-12-11T07:15:07Z
2020-12-11T05:17:11Z,42.805,6.029,13.2986,4.59996,2470.273,2020-12-11T07:18:10Z
2020-12-11T05:20:14Z,42.805,6.029,13.2981,4.59992,2470.273,2020-12-11T07:21:13Z
2020-12-11T05:23:18Z,42.805,6.029,13.2982,4.59989,2470.24,2020-12-11T07:24:16Z
2020-12-11T05:26:21Z,42.805,6.029,13.2983,4.59988,2470.227,2020-12-11T07:27:19Z
2020-12-11T05:29:24Z,42.805,6.029,13.2982,4.59989,2470.273,2020-12-11T07:30:22Z
2020-12-11T05:32:27Z,42.805,6.029,13.2979,4.59989,2470.227,2020-12-11T07:33:26Z
2020-12-11T05:35:30Z,42.805,6.029,13.2986,4.59999,2470.24,2020-12-11T07:36:29Z
2020-12-11T05:38:33Z,42.805,6.029,13.2984,4.59994,2470.24,2020-12-11T07:39:32Z
2020-12-11T05:41:36Z,42.805,6.029,13.2987,4.59992,2470.273,2020-12-11T07:42:35Z
2020-12-11T05:44:39Z,42.805,6.029,13.2980,4.59990,2470.24,2020-12-11T07:45:38Z
2020-12-11T05:47:43Z,42.805,6.029,13.2983,4.59989,2470.203,2020-12-11T07:48:41Z
2020-12-11T05:50:46Z,42.805,6.029,13.2982,4.59992,2470.25,2020-12-11T07:51:44Z
2020-12-11T05:53:49Z,42.805,6.029,13.2986,4.59991,2470.24,2020-12-11T07:54:47Z
2020-12-11T05:56:52Z,42.805,6.029,13.2981,4.59990,2470.227,2020-12-11T07:57:51Z
2020-12-11T05:59:55Z,42.805,6.029,13.2980,4.59991,2470.25,2020-12-11T08:00:54Z
2020-12-11T06:02:58Z,42.805,6.029,13.2982,4.59989,2470.189,2020-12-11T08:03:57Z
2020-12-11T06:06:01Z,42.805,6.029,13.2982,4.59991,2470.227,2020-12-11T08:07:00Z
2020-12-11T06:09:04Z,42.805,6.029,13.2986,4.59988,2470.227,2020-12-11T08:10:03Z
2020-12-11T06:12:07Z,42.805,6.029,13.2981,4.59986,2470.24,2020-12-11T08:13:06Z
2020-12-11T06:15:11Z,42.805,6.029,13.2983,4.59988,2470.25,2020-12-11T08:16:09Z
2020-12-11T06:18:14Z,42.805,6.029,13.2986,4.59993,2470.24,2020-12-11T08:19:12Z
2020-12-11T06:21:17Z,42.805,6.029,13.2980,4.59990,2470.203,2020-12-11T08:22:15Z
2020-12-11T06:24:20Z,42.805,6.029,13.2983,4.59986,2470.24,2020-12-11T08:25:19Z
2020-12-11T06:27:23Z,42.805,6.029,13.2977,4.59986,2470.194,2020-12-11T08:28:22Z
2020-12-11T06:30:26Z,42.805,6.029,13.2980,4.59988,2470.203,2020-12-11T08:31:25Z
2020-12-11T06:33:29Z,42.805,6.029,13.2981,4.59991,2470.227,2020-12-11T08:34:28Z
2020-12-11T06:36:32Z,42.805,6.029,13.2982,4.59990,2470.227,2020-12-11T08:37:31Z
2020-12-11T06:39:36Z,42.805,6.029,13.2980,4.59991,2470.227,2020-12-11T08:40:34Z
2020-12-11T06:42:39Z,42.805,6.029,13.2988,4.59988,2470.203,2020-12-11T08:43:37Z
2020-12-11T06:45:42Z,42.805,6.029,13.2983,4.59992,2470.18,2020-12-11T08:46:40Z
2020-12-11T06:48:45Z,42.805,6.029,13.2980,4.59991,2470.203,2020-12-11T08:49:44Z
2020-12-11T06:51:48Z,42.805,6.029,13.2981,4.59986,2470.18,2020-12-11T08:52:47Z
2020-12-11T06:54:51Z,42.805,6.029,13.2978,4.59987,2470.217,2020-12-11T08:55:50Z
2020-12-11T06:57:54Z,42.805,6.029,13.2986,4.59990,2470.203,2020-12-11T08:58:53Z
2020-12-11T07:00:57Z,42.805,6.029,13.2986,4.59991,2470.217,2020-12-11T09:01:56Z
2020-12-11T07:04:01Z,42.805,6.029,13.2983,4.59995,2470.156,2020-12-11T09:04:59Z
2020-12-11T07:07:04Z,42.805,6.029,13.2982,4.59995,2470.217,2020-12-11T09:08:02Z
2020-12-11T07:10:07Z,42.805,6.029,13.2986,4.59991,2470.194,2020-12-11T09:11:05Z
2020-12-11T07:13:10Z,42.805,6.029,13.2982,4.59996,2470.18,2020-12-11T09:14:09Z
2020-12-11T07:16:13Z,42.805,6.029,13.2982,4.59993,2470.203,2020-12-11T09:17:12Z
2020-12-11T07:19:16Z,42.805,6.029,13.2982,4.59994,2470.203,2020-12-11T09:20:15Z
2020-12-11T07:22:19Z,42.805,6.029,13.2983,4.59989,2470.203,2020-12-11T09:23:18Z
2020-12-11T07:25:22Z,42.805,6.029,13.2984,4.59990,2470.18,2020-12-11T09:26:21Z
2020-12-11T07:28:26Z,42.805,6.029,13.2982,4.59991,2470.18,2020-12-11T09:29:24Z
2020-12-11T07:31:29Z,42.805,6.029,13.2982,4.59991,2470.171,2020-12-11T09:32:27Z
2020-12-11T07:34:32Z,42.805,6.029,13.2982,4.59991,2470.194,2020-12-11T09:35:30Z
2020-12-11T07:37:35Z,42.805,6.029,13.2981,4.59987,2470.156,2020-12-11T09:38:34Z
2020-12-11T07:40:38Z,42.805,6.029,13.2982,4.59988,2470.203,2020-12-11T09:41:37Z
2020-12-11T07:43:41Z,42.805,6.029,13.2982,4.59989,2470.194,2020-12-11T09:44:40Z
2020-12-11T07:46:44Z,42.805,6.029,13.2978,4.59988,2470.18,2020-12-11T09:47:43Z
2020-12-11T07:49:47Z,42.805,6.029,13.2981,4.59988,2470.18,2020-12-11T09:50:46Z
2020-12-11T07:52:51Z,42.805,6.029,13.2978,4.59991,2470.147,2020-12-11T09:53:49Z
2020-12-11T07:55:54Z,42.805,6.029,13.2982,4.59987,2470.18,2020-12-11T09:56:52Z
2020-12-11T07:58:57Z,42.805,6.029,13.2988,4.59991,2470.156,2020-12-11T09:59:55Z
2020-12-11T08:02:00Z,42.805,6.029,13.2982,4.59995,2470.203,2020-12-11T10:02:59Z
2020-12-11T08:05:03Z,42.805,6.029,13.2981,4.59988,2470.156,2020-12-11T10:06:02Z
2020-12-11T08:08:06Z,42.805,6.029,13.2980,4.59987,2470.203,2020-12-11T10:09:05Z
2020-12-11T08:11:09Z,42.805,6.029,13.2983,4.59994,2470.156,2020-12-11T10:12:08Z
2020-12-11T08:14:12Z,42.805,6.029,13.2982,4.59989,2470.18,2020-12-11T10:15:11Z
2020-12-11T08:17:16Z,42.805,6.029,13.2983,4.59999,2470.147,2020-12-11T10:18:14Z
2020-12-11T08:20:19Z,42.805,6.029,13.2985,4.59993,2470.156,2020-12-11T10:21:17Z
2020-12-11T08:23:22Z,42.805,6.029,13.2985,4.59991,2470.156,2020-12-11T10:24:20Z
2020-12-11T08:26:25Z,42.805,6.029,13.2982,4.59988,2470.147,2020-12-11T10:27:24Z
2020-12-11T08:29:28Z,42.805,6.029,13.2991,4.59996,2470.156,2020-12-11T10:30:27Z
2020-12-11T08:32:31Z,42.805,6.029,13.2986,4.59992,2470.133,2020-12-11T10:33:30Z
2020-12-11T08:35:34Z,42.805,6.029,13.2983,4.60001,2470.147,2020-12-11T10:36:33Z
2020-12-11T08:38:37Z,42.805,6.029,13.2981,4.59994,2470.171,2020-12-11T10:39:36Z
2020-12-11T08:41:41Z,42.805,6.029,13.2983,4.59992,2470.156,2020-12-11T10:42:39Z
2020-12-11T08:44:44Z,42.805,6.029,13.2985,4.59994,2470.133,2020-12-11T10:45:42Z
2020-12-11T08:47:47Z,42.805,6.029,13.2981,4.59999,2470.133,2020-12-11T10:48:45Z
2020-12-11T08:50:50Z,42.805,6.029,13.2977,4.59987,2470.11,2020-12-11T10:51:49Z
2020-12-11T08:53:53Z,42.805,6.029,13.2980,4.59988,2470.124,2020-12-11T10:54:52Z
2020-12-11T08:56:56Z,42.805,6.029,13.2981,4.59987,2470.11,2020-12-11T10:57:55Z
2020-12-11T08:59:59Z,42.805,6.029,13.2982,4.59988,2470.147,2020-12-11T11:00:58Z
2020-12-11T09:03:02Z,42.805,6.029,13.2983,4.59994,2470.156,2020-12-11T11:04:01Z
2020-12-11T09:06:06Z,42.805,6.029,13.2978,4.59995,2470.171,2020-12-11T11:07:04Z
2020-12-11T09:09:09Z,42.805,6.029,13.2979,4.59989,2470.156,2020-12-11T11:10:07Z
2020-12-11T09:12:12Z,42.805,6.029,13.2978,4.59992,2470.147,2020-12-11T11:13:10Z
2020-12-11T09:15:15Z,42.805,6.029,13.2979,4.59996,2470.133,2020-12-11T11:16:14Z
2020-12-11T09:18:18Z,42.805,6.029,13.2980,4.59991,2470.147,2020-12-11T11:19:17Z
2020-12-11T09:21:21Z,42.805,6.029,13.2981,4.59987,2470.133,2020-12-11T11:22:20Z
2020-12-11T09:24:24Z,42.805,6.029,13.2982,4.59991,2470.133,2020-12-11T11:25:23Z
2020-12-11T09:27:27Z,42.805,6.029,13.2979,4.59990,2470.11,2020-12-11T11:28:26Z
2020-12-11T09:30:31Z,42.805,6.029,13.2983,4.59991,2470.156,2020-12-11T11:31:29Z
2020-12-11T09:33:34Z,42.805,6.029,13.2980,4.59988,2470.133,2020-12-11T11:34:32Z
2020-12-11T09:36:37Z,42.805,6.029,13.2982,4.59988,2470.124,2020-12-11T11:37:35Z
2020-12-11T09:39:40Z,42.805,6.029,13.2978,4.59987,2470.11,2020-12-11T11:40:39Z
2020-12-11T09:42:43Z,42.805,6.029,13.2980,4.59991,2470.133,2020-12-11T11:43:42Z
2020-12-11T09:45:46Z,42.805,6.029,13.2983,4.59988,2470.11,2020-12-11T11:46:45Z
2020-12-11T09:48:49Z,42.805,6.029,13.2979,4.59989,2470.11,2020-12-11T11:49:48Z
2020-12-11T09:51:53Z,42.805,6.029,13.2982,4.59988,2470.11,2020-12-11T11:52:51Z
2020-12-11T09:54:56Z,42.805,6.029,13.2984,4.59990,2470.124,2020-12-11T11:55:54Z
2020-12-11T09:57:59Z,42.805,6.029,13.2980,4.59988,2470.087,2020-12-11T11:58:57Z
2020-12-11T10:01:02Z,42.805,6.029,13.2985,4.59987,2470.156,2020-12-11T12:02:01Z
2020-12-11T10:04:05Z,42.805,6.029,13.2981,4.59990,2470.133,2020-12-11T12:05:04Z
2020-12-11T10:07:08Z,42.805,6.029,13.2983,4.59987,2470.11,2020-12-11T12:08:07Z
2020-12-11T10:10:11Z,42.805,6.029,13.2978,4.59986,2470.11,2020-12-11T12:11:10Z
2020-12-11T10:13:14Z,42.805,6.029,13.2979,4.59986,2470.133,2020-12-11T12:14:13Z
2020-12-11T10:16:18Z,42.805,6.029,13.2979,4.59996,2470.147,2020-12-11T12:17:16Z
2020-12-11T10:19:21Z,42.805,6.029,13.2982,4.59994,2470.147,2020-12-11T12:20:19Z
2020-12-11T10:22:24Z,42.805,6.029,13.2981,4.60001,2470.124,2020-12-11T12:23:22Z
2020-12-11T10:25:27Z,42.805,6.029,13.2983,4.59995,2470.11,2020-12-11T12:26:26Z
2020-12-11T10:28:30Z,42.805,6.029,13.2980,4.59990,2470.11,2020-12-11T12:29:29Z
2020-12-11T10:31:33Z,42.805,6.029,13.2981,4.59988,2470.11,2020-12-11T12:32:32Z
2020-12-11T10:34:36Z,42.805,6.029,13.2980,4.59987,2470.124,2020-12-11T12:35:35Z
2020-12-11T10:37:39Z,42.805,6.029,13.2979,4.59990,2470.124,2020-12-11T12:38:38Z
2020-12-11T10:40:43Z,42.805,6.029,13.2985,4.59995,2470.11,2020-12-11T12:41:41Z
2020-12-11T10:43:46Z,42.805,6.029,13.2983,4.59990,2470.133,2020-12-11T12:44:44Z
2020-12-11T10:46:49Z,42.805,6.029,13.2986,4.59992,2470.124,2020-12-11T12:47:47Z
2020-12-11T10:49:52Z,42.805,6.029,13.2979,4.59989,2470.087,2020-12-11T12:50:51Z
2020-12-11T10:52:55Z,42.805,6.029,13.2988,4.59991,2470.124,2020-12-11T12:53:54Z
2020-12-11T10:55:58Z,42.805,6.029,13.2983,4.59989,2470.11,2020-12-11T12:56:57Z
2020-12-11T10:59:01Z,42.805,6.029,13.2981,4.59993,2470.087,2020-12-11T13:00:00Z
2020-12-11T11:02:04Z,42.805,6.029,13.2980,4.59989,2470.156,2020-12-11T13:03:03Z
2020-12-11T11:05:08Z,42.805,6.029,13.2982,4.59992,2470.11,2020-12-11T13:06:06Z
2020-12-11T11:08:11Z,42.805,6.029,13.2981,4.59992,2470.11,2020-12-11T13:09:09Z
2020-12-11T11:11:14Z,42.805,6.029,13.2980,4.59988,2470.087,2020-12-11T13:12:12Z
2020-12-11T11:14:17Z,42.805,6.029,13.2979,4.59989,2470.124,2020-12-11T13:15:16Z
2020-12-11T11:17:20Z,42.805,6.029,13.2983,4.59992,2470.087,2020-12-11T13:18:19Z
2020-12-11T11:20:23Z,42.805,6.029,13.2984,4.59996,2470.1,2020-12-11T13:21:22Z
2020-12-11T11:23:26Z,42.805,6.029,13.2983,4.59990,2470.087,2020-12-11T13:24:25Z
2020-12-11T11:26:29Z,42.805,6.029,13.2986,4.59990,2470.133,2020-12-11T13:27:28Z
2020-12-11T11:29:33Z,42.805,6.029,13.2986,4.59994,2470.147,2020-12-11T13:30:31Z
2020-12-11T11:32:36Z,42.805,6.029,13.2980,4.59989,2470.124,2020-12-11T13:33:34Z
2020-12-11T11:35:39Z,42.805,6.029,13.2982,4.59999,2470.077,2020-12-11T13:36:38Z
2020-12-11T11:38:42Z,42.805,6.029,13.2986,4.59997,2470.087,2020-12-11T13:39:41Z
2020-12-11T11:41:45Z,42.805,6.029,13.2980,4.59989,2470.11,2020-12-11T13:42:44Z
2020-12-11T11:44:48Z,42.805,6.029,13.2986,4.59999,2470.133,2020-12-11T13:45:47Z
2020-12-11T11:47:51Z,42.805,6.029,13.2985,4.59991,2470.11,2020-12-11T13:48:50Z
2020-12-11T11:50:55Z,42.805,6.029,13.2983,4.59989,2470.077,2020-12-11T13:51:53Z
2020-12-11T11:53:58Z,42.805,6.029,13.2981,4.59999,2470.11,2020-12-11T13:54:56Z
2020-12-11T11:57:01Z,42.805,6.029,13.2980,4.59992,2470.133,2020-12-11T13:57:59Z
2020-12-11T12:00:04Z,42.805,6.029,13.2978,4.59991,2470.11,2020-12-11T14:01:03Z
2020-12-11T12:03:07Z,42.805,6.029,13.2983,4.59992,2470.087,2020-12-11T14:04:06Z
2020-12-11T12:06:10Z,42.805,6.029,13.2983,4.59989,2470.124,2020-12-11T14:07:09Z
2020-12-11T12:09:13Z,42.805,6.029,13.2981,4.59990,2470.087,2020-12-11T14:10:12Z
2020-12-11T12:12:16Z,42.805,6.029,13.2984,4.60000,2470.063,2020-12-11T14:13:15Z
2020-12-11T12:15:20Z,42.805,6.029,13.2983,4.59993,2470.087,2020-12-11T14:16:18Z
2020-12-11T12:18:23Z,42.805,6.029,13.2982,4.59998,2470.124,2020-12-11T14:19:21Z
2020-12-11T12:21:26Z,42.805,6.029,13.2984,4.59991,2470.11,2020-12-11T14:22:24Z
2020-12-11T12:24:29Z,42.805,6.029,13.2978,4.59991,2470.11,2020-12-11T14:25:28Z
2020-12-11T12:27:32Z,42.805,6.029,13.2983,4.60001,2470.063,2020-12-11T14:28:31Z
2020-12-11T12:30:35Z,42.805,6.029,13.2983,4.59991,2470.077,2020-12-11T14:31:34Z
2020-12-11T12:33:38Z,42.805,6.029,13.2981,4.59994,2470.11,2020-12-11T14:34:37Z
2020-12-11T12:36:41Z,42.805,6.029,13.2981,4.59993,2470.11,2020-12-11T14:37:40Z
2020-12-11T12:39:45Z,42.805,6.029,13.2980,4.59988,2470.133,2020-12-11T14:40:43Z
2020-12-11T12:42:48Z,42.805,6.029,13.2981,4.59991,2470.087,2020-12-11T14:43:46Z
2020-12-11T12:45:51Z,42.805,6.029,13.2982,4.59986,2470.133,2020-12-11T14:46:49Z
2020-12-11T12:48:54Z,42.805,6.029,13.2981,4.59991,2470.063,2020-12-11T14:49:53Z
2020-12-11T12:51:57Z,42.805,6.029,13.2979,4.59984,2470.171,2020-12-11T14:52:56Z
2020-12-11T12:55:00Z,42.805,6.029,13.2977,4.59988,2470.11,2020-12-11T14:55:59Z
2020-12-11T12:58:03Z,42.805,6.029,13.2982,4.59987,2470.11,2020-12-11T14:59:02Z
2020-12-11T13:01:06Z,42.805,6.029,13.2980,4.59988,2470.147,2020-12-11T15:02:05Z
2020-12-11T13:04:10Z,42.805,6.029,13.2979,4.59989,2470.124,2020-12-11T15:05:08Z
2020-12-11T13:07:13Z,42.805,6.029,13.2976,4.59988,2470.133,2020-12-11T15:08:11Z
2020-12-11T13:10:16Z,42.805,6.029,13.2981,4.59988,2470.133,2020-12-11T15:11:14Z
2020-12-11T13:13:19Z,42.805,6.029,13.2987,4.59998,2470.11,2020-12-11T15:14:18Z
2020-12-11T13:16:22Z,42.805,6.029,13.2982,4.59989,2470.11,2020-12-11T15:17:21Z
2020-12-11T13:19:25Z,42.805,6.029,13.2980,4.59991,2470.147,2020-12-11T15:20:24Z
2020-12-11T13:22:28Z,42.805,6.029,13.2982,4.59989,2470.11,2020-12-11T15:23:27Z
2020-12-11T13:25:32Z,42.805,6.029,13.2983,4.59991,2470.133,2020-12-11T15:26:30Z
2020-12-11T13:28:35Z,42.805,6.029,13.2982,4.59991,2470.11,2020-12-11T15:29:33Z
2020-12-11T13:31:38Z,42.805,6.029,13.2979,4.59988,2470.156,2020-12-11T15:32:36Z
2020-12-11T13:34:41Z,42.805,6.029,13.2981,4.59987,2470.11,2020-12-11T15:35:40Z
2020-12-11T13:37:44Z,42.805,6.029,13.2983,4.59988,2470.156,2020-12-11T15:38:43Z
2020-12-11T13:40:47Z,42.805,6.029,13.2983,4.59989,2470.147,2020-12-11T15:41:46Z
2020-12-11T13:43:50Z,42.805,6.029,13.2985,4.59988,2470.171,2020-12-11T15:44:49Z
2020-12-11T13:46:53Z,42.805,6.029,13.2987,4.59998,2470.156,2020-12-11T15:47:52Z
2020-12-11T13:49:57Z,42.805,6.029,13.2983,4.59995,2470.156,2020-12-11T15:50:55Z
2020-12-11T13:53:00Z,42.805,6.029,13.2982,4.59999,2470.147,2020-12-11T15:53:58Z
2020-12-11T13:56:03Z,42.805,6.029,13.2982,4.59992,2470.133,2020-12-11T15:57:01Z
2020-12-11T13:59:06Z,42.805,6.029,13.2982,4.59994,2470.18,2020-12-11T16:00:05Z
2020-12-11T14:02:09Z,42.805,6.029,13.2978,4.59988,2470.133,2020-12-11T16:03:08Z
2020-12-11T14:05:12Z,42.805,6.029,13.2979,4.59991,2470.18,2020-12-11T16:06:11Z
2020-12-11T14:08:15Z,42.805,6.029,13.2981,4.59994,2470.18,2020-12-11T16:09:14Z
2020-12-11T14:11:18Z,42.805,6.029,13.2983,4.60005,2470.156,2020-12-11T16:12:17Z
2020-12-11T14:14:22Z,42.805,6.029,13.2982,4.59998,2470.194,2020-12-11T16:15:20Z
2020-12-11T14:17:25Z,42.805,6.029,13.2984,4.59991,2470.156,2020-12-11T16:18:23Z
2020-12-11T14:20:28Z,42.805,6.029,13.2979,4.59988,2470.194,2020-12-11T16:21:26Z
2020-12-11T14:23:31Z,42.805,6.029,13.2984,4.60000,2470.203,2020-12-11T16:24:30Z
2020-12-11T14:26:34Z,42.805,6.029,13.2982,4.59995,2470.18,2020-12-11T16:27:33Z
2020-12-11T14:29:37Z,42.805,6.029,13.2985,4.59999,2470.18,2020-12-11T16:30:36Z
2020-12-11T14:32:40Z,42.805,6.029,13.2982,4.59999,2470.194,2020-12-11T16:33:39Z
2020-12-11T14:35:43Z,42.805,6.029,13.2979,4.59991,2470.18,2020-12-11T16:36:42Z
2020-12-11T14:38:47Z,42.805,6.029,13.2980,4.59996,2470.18,2020-12-11T16:39:45Z
2020-12-11T14:41:50Z,42.805,6.029,13.2976,4.59994,2470.194,2020-12-11T16:42:48Z
2020-12-11T14:44:53Z,42.805,6.029,13.2980,4.59998,2470.18,2020-12-11T16:45:51Z
2020-12-11T14:47:56Z,42.805,6.029,13.2981,4.59993,2470.227,2020-12-11T16:48:55Z
2020-12-11T14:50:59Z,42.805,6.029,13.2982,4.60001,2470.227,2020-12-11T16:51:58Z
2020-12-11T14:54:02Z,42.805,6.029,13.2982,4.59998,2470.18,2020-12-11T16:55:01Z
2020-12-11T14:57:05Z,42.805,6.029,13.2983,4.59996,2470.203,2020-12-11T16:58:04Z
2020-12-11T15:00:08Z,42.805,6.029,13.2986,4.59995,2470.203,2020-12-11T17:01:07Z
2020-12-11T15:03:12Z,42.805,6.029,13.2981,4.59991,2470.24,2020-12-11T17:04:10Z